SCP
0 0 0 0 0 0 0 0 0 0 0 0 0 0 0 0 0 0 0 0 0 0 0 0 0 0 0 0 0 0 0 0 0 0 0 0 0 0 0 0 0 0 0 0 0 0 0 0 0
0 0 0 0 0 0 0 0 0 0 0 0 0 0 0 0 0 0 0 0 0 0 0 0 0 0 0 0 0 0 0 0 0 0 0 0 0 0 0 0 0 0 0 0 0 0 0 0 0
0 0 0 0 0 0 0 0 0 0 0 0 0 0 0 0 0 0 0 0 0 0 0 0 1 1 0 0 0 0 0 0 0 0 0 0 0 0 0 0 0 0 0 0 0 0 0 0 0
0 0 0 0 0 0 0 0 0 0 0 0 0 0 0 0 0 0 0 0 0 0 0 0 1 1 1 0 0 0 0 0 0 0 0 0 0 0 0 0 0 0 0 0 0 0 0 0 0
0 0 0 0 0 0 0 0 0 0 0 0 0 0 0 0 0 0 0 0 0 0 0 1 1 1 1 1 0 0 0 0 0 0 0 0 0 0 0 0 0 0 0 0 0 0 0 0 0
0 0 0 0 0 0 0 0 0 0 0 0 0 0 0 0 0 0 0 0 0 0 0 1 1 1 1 1 0 0 0 0 0 0 0 0 0 0 0 0 0 0 0 0 0 0 0 0 0
0 0 0 0 0 0 0 0 0 0 0 0 0 0 0 0 0 0 0 0 0 0 0 0 1 1 1 0 0 0 0 0 0 0 0 0 0 0 0 0 0 0 0 0 0 0 0 0 0
0 0 0 0 0 0 0 0 0 0 0 0 0 0 0 0 0 0 0 0 0 0 0 0 0 0 0 0 0 0 0 0 0 0 0 0 0 0 0 0 0 0 0 0 0 0 0 0 0
0 0 0 0 0 0 0 0 0 0 0 0 0 0 0 0 0 0 0 0 1 1 1 0 0 0 0 0 0 0 0 0 0 0 0 0 0 0 0 0 0 0 0 0 0 0 0 0 0
0 0 0 0 0 0 0 0 0 0 0 0 0 0 0 0 0 0 0 0 1 1 1 0 0 0 0 0 0 0 0 0 0 0 0 0 0 0 0 0 0 0 0 0 0 0 0 0 0
0 0 0 0 0 0 0 0 0 0 0 0 0 0 0 0 0 0 0 0 1 1 1 1 0 0 0 0 0 0 0 0 0 0 0 0 0 0 0 0 0 0 0 0 0 0 0 0 0
0 0 0 0 0 0 0 0 0 0 0 0 0 0 0 0 0 0 0 0 0 1 1 1 0 0 0 0 0 0 0 0 0 0 0 0 0 0 0 0 0 0 0 0 0 0 0 0 0
0 0 0 0 0 0 0 0 0 0 0 0 0 0 0 0 0 0 0 0 0 0 0 1 0 0 0 0 0 0 0 0 0 0 0 0 0 0 0 0 0 0 0 0 0 0 0 0 0
0 0 0 0 0 0 0 0 0 0 0 0 0 0 0 0 0 0 0 0 0 0 0 0 0 0 0 0 0 0 0 0 0 0 0 0 0 0 0 0 0 0 0 0 0 0 0 0 0
0 0 0 0 0 0 0 0 0 0 0 0 0 0 0 0 0 0 0 0 0 0 0 0 0 0 0 0 0 0 0 0 0 0 0 0 0 0 0 0 0 0 0 0 0 0 0 0 0
0 0 0 0 0 0 0 0 0 0 0 0 0 0 0 0 0 0 0 0 0 0 0 0 0 0 0 0 0 0 0 0 0 0 0 0 0 0 0 0 0 0 0 0 0 0 0 0 0
0 0 0 0 0 0 0 0 0 0 0 0 0 0 0 0 0 0 0 0 0 0 0 0 0 0 0 0 0 0 0 0 0 0 0 0 0 0 0 0 0 0 0 0 0 0 0 0 0
0 0 0 0 0 0 0 0 0 0 0 0 0 0 0 0 0 0 0 0 0 0 0 0 0 0 0 0 0 0 0 0 0 0 0 0 0 0 0 0 0 0 0 0 0 0 0 0 0
0 0 0 0 0 0 0 0 0 0 0 0 0 0 0 0 0 0 0 0 0 0 0 0 0 0 0 0 0 0 0 0 0 0 0 0 0 0 0 0 0 0 0 0 0 0 0 0 0
0 0 0 0 0 0 0 0 0 0 0 0 0 0 0 0 0 0 0 0 0 0 0 0 0 0 0 0 0 0 0 0 0 0 0 0 0 0 0 0 0 0 0 0 0 0 0 0 0
0 0 0 0 0 0 0 0 0 0 0 0 0 0 0 0 0 0 0 0 0 0 0 0 0 0 0 0 0 0 0 0 0 0 0 0 0 0 0 0 0 0 0 0 0 0 0 0 0
0 0 0 0 0 0 0 0 0 0 0 0 0 0 0 0 0 0 0 0 0 0 0 0 0 0 0 0 0 0 0 0 0 0 0 0 0 0 0 0 0 0 0 0 0 0 0 0 0
0 0 0 0 0 0 0 0 0 0 0 0 0 0 0 0 0 0 0 0 0 0 0 0 0 0 0 0 0 0 0 0 0 0 0 0 0 0 0 0 0 0 0 0 0 0 0 0 0
0 0 0 0 0 0 0 0 0 0 0 0 0 0 0 0 0 0 0 0 0 0 0 0 0 0 0 0 0 0 0 0 0 0 0 0 0 0 0 0 0 0 0 0 0 0 0 0 0
0 0 0 0 0 0 0 0 0 0 0 0 0 0 0 0 0 0 0 0 0 0 0 0 0 0 0 0 0 0 0 0 0 0 0 0 0 0 0 0 0 0 0 0 0 0 0 0 0
0 0 0 0 0 0 0 0 0 0 0 0 0 0 0 0 0 0 0 0 0 0 0 0 0 0 0 0 0 0 0 0 0 0 0 0 0 0 0 0 0 0 0 0 0 0 0 0 0
0 0 0 0 0 0 0 0 0 0 0 0 0 0 0 0 0 0 0 0 0 0 0 0 0 0 0 0 0 0 0 0 0 0 0 0 0 0 0 0 0 0 0 0 0 0 0 0 0
0 0 0 0 0 0 0 0 0 0 0 0 0 0 0 0 0 0 0 0 0 0 0 0 0 0 0 0 0 0 0 0 0 0 0 0 0 0 0 0 0 0 0 0 0 0 0 0 0
0 0 0 0 0 0 0 0 0 0 0 0 0 0 0 0 0 0 0 0 0 0 0 0 0 0 0 0 0 0 0 0 0 0 0 0 0 0 0 0 0 0 0 0 0 0 0 0 0
0 0 0 0 0 0 0 0 0 0 0 0 0 0 0 0 0 0 0 0 0 0 0 0 0 0 0 0 0 0 0 0 0 0 0 0 0 0 0 0 0 0 0 0 0 0 0 0 0
Wind_Speed
14 12 7 2 3 4 7 4 2 0 1 2 3 3 4 5 5 6 3 4 6 7 7 7 7 7 8 8 8 8 8 8 9 9 9 8 8 8 8 9 9 9 9 10 10 10 10 10 10
11 9 4 3 4 6 6 5 2 1 1 1 2 2 2 5 7 7 3 4 6 8 7 6 7 8 8 8 8 8 8 8 8 8 8 8 8 8 8 9 9 9 9 9 10 10 9 9 9
10 8 3 3 5 6 3 1 2 2 2 1 1 2 3 4 5 4 4 4 6 7 7 7 7 8 8 8 8 8 7 7 8 8 8 7 8 8 8 8 9 8 8 9 9 9 9 8 8
5 3 3 4 9 6 2 1 2 1 0 1 1 3 4 4 3 5 5 4 6 7 7 7 7 7 8 8 7 7 7 7 7 7 7 7 7 7 8 8 9 8 8 8 8 8 8 7 7
3 3 4 6 9 5 2 1 2 1 1 0 1 2 3 4 7 6 5 4 5 6 7 7 7 7 7 7 7 7 6 6 6 7 7 7 7 7 7 8 8 8 8 7 7 7 7 6 6
3 3 5 8 7 5 2 2 2 2 1 0 1 0 3 4 6 4 3 3 4 6 7 7 7 7 7 6 7 6 6 6 6 6 7 7 7 7 7 7 7 7 7 7 6 6 6 6 5
3 3 6 7 6 5 1 2 2 3 2 2 2 1 3 3 4 3 2 3 4 5 6 5 5 5 6 6 6 5 5 5 5 6 6 6 6 7 7 7 7 6 6 6 6 5 5 5 4
3 3 5 6 7 4 1 2 3 4 2 3 3 1 2 2 2 2 2 2 3 4 5 4 4 4 4 4 4 5 4 4 4 5 5 5 5 6 6 6 6 6 6 6 5 5 4 4 3
3 3 5 4 4 2 2 2 3 4 2 2 2 3 2 3 2 1 1 1 2 3 4 3 3 3 3 3 4 4 4 4 4 4 5 5 3 4 5 6 6 6 6 5 5 4 4 3 2
2 3 4 3 4 3 3 3 3 3 2 2 2 3 3 2 1 1 1 1 2 2 3 3 3 3 2 2 3 2 3 3 2 3 3 2 2 2 4 6 5 5 5 5 4 4 3 2 1
2 3 3 4 5 5 5 4 4 4 4 3 2 1 0 1 1 1 2 2 2 2 2 2 2 2 2 2 2 1 1 2 2 3 3 2 2 2 3 2 3 3 3 2 2 2 1 1 1
3 3 4 4 4 5 5 5 5 5 6 4 4 3 3 3 3 2 2 1 1 1 1 2 2 2 2 2 1 1 1 1 1 2 2 2 2 2 2 2 2 2 1 1 1 1 1 1 1
5 4 4 4 4 5 6 6 6 7 6 6 5 5 5 5 4 3 2 2 1 2 2 2 2 3 3 2 2 2 1 1 1 1 2 2 2 2 2 2 2 2 2 2 1 1 1 1 1
2 4 4 4 5 5 7 7 6 7 5 6 6 6 5 5 4 3 3 2 2 2 3 2 2 2 2 2 2 2 2 1 2 1 1 2 2 2 2 2 2 2 2 2 1 1 1 0 0
4 5 5 5 5 3 4 7 8 6 5 6 6 6 6 5 4 4 3 2 2 2 2 2 2 2 2 3 2 2 2 2 2 2 2 2 2 2 2 2 2 2 2 2 1 1 1 0 0
5 4 4 3 3 2 3 8 4 2 5 7 7 6 4 4 4 4 3 2 2 2 2 2 1 2 2 2 2 1 2 2 1 2 2 2 2 2 2 2 2 2 2 2 1 1 1 0 0
4 4 5 3 3 3 5 8 4 3 6 7 7 5 5 5 4 3 2 2 2 2 2 2 2 2 2 2 2 1 2 2 1 2 2 2 2 2 2 2 2 2 2 1 1 1 1 1 0
3 4 5 5 3 5 8 10 8 6 7 7 6 5 5 5 4 3 2 2 2 2 2 2 2 2 2 2 2 1 1 1 1 2 2 2 2 2 2 2 3 2 2 2 1 1 1 1 1
5 6 8 6 4 6 9 11 9 8 8 7 5 5 5 5 4 3 2 2 1 2 2 2 3 2 3 3 3 2 2 2 2 2 2 2 2 2 3 3 3 3 3 3 3 2 1 1 0
6 7 7 6 4 6 9 12 9 8 7 5 5 5 4 4 4 3 2 2 2 2 3 3 3 3 3 3 3 2 2 2 2 2 2 3 3 2 3 3 3 3 3 3 3 2 2 1 1
6 6 6 7 8 7 7 8 6 5 5 4 4 4 4 4 4 3 2 2 1 2 3 3 3 3 4 4 3 2 1 1 1 2 2 3 3 3 3 3 3 3 3 3 4 4 3 2 2
6 3 5 7 6 4 3 6 5 5 5 4 4 4 4 3 3 3 3 2 2 2 2 2 2 3 3 4 4 5 4 3 3 3 3 3 3 3 3 3 3 3 3 4 4 4 3 3 3
4 5 6 7 6 6 5 6 7 3 4 4 4 4 3 2 3 3 3 2 2 2 2 2 2 3 3 4 4 5 4 3 2 2 3 3 3 3 3 3 3 3 3 4 4 3 4 3 3
4 5 6 5 3 6 6 5 6 3 5 4 4 3 3 1 2 2 2 2 3 2 2 3 3 3 2 3 4 5 4 4 4 3 4 3 3 2 3 2 2 3 3 3 3 4 4 4 3
3 2 1 1 2 6 3 4 7 3 3 2 2 2 2 1 2 2 2 3 2 2 3 3 3 3 3 4 4 4 4 4 5 5 4 4 3 2 3 3 3 3 3 3 3 3 4 4 4
4 3 2 2 4 4 3 6 5 2 1 1 1 2 2 1 2 3 3 3 3 3 3 3 3 3 3 4 4 4 3 3 3 4 3 4 3 3 4 3 3 3 3 3 3 3 3 3 4
3 3 2 2 4 5 6 5 3 2 1 2 2 3 3 2 2 3 3 2 2 3 3 4 3 3 4 4 4 3 4 3 3 3 3 3 3 3 4 4 3 3 4 4 4 3 4 3 4
4 1 1 2 2 5 6 6 4 2 4 4 3 3 4 3 3 4 3 3 2 2 2 3 3 3 3 3 3 2 3 3 3 3 4 3 4 4 4 4 4 4 4 4 4 3 3 3 3
4 3 3 2 3 3 5 5 0 1 1 2 3 4 5 4 5 4 3 3 2 2 2 3 3 2 2 3 3 3 3 3 2 3 3 4 4 4 5 5 4 4 4 4 4 4 4 4 4
3 4 4 4 4 4 4 8 1 1 2 4 4 4 4 5 5 4 4 3 3 3 3 2 2 2 2 2 2 3 2 2 2 3 3 3 4 4 5 4 4 4 4 4 5 5 4 5 4
Wind_Direction
307 287 266 256 241 233 240 247 245 138 3 5 1 3 19 23 30 99 129 91 91 104 110 118 107 109 111 109 109 109 108 111 112 110 108 107 105 103 104 105 104 100 97 96 93 90 88 87 84
297 289 267 239 238 236 234 221 232 11 71 33 12 3 48 66 73 96 97 87 100 104 106 109 107 108 111 112 109 111 112 113 116 114 113 112 111 107 103 101 104 102 98 97 95 93 91 90 88
282 269 253 232 235 239 245 77 91 44 43 54 62 22 29 60 79 93 91 100 103 104 103 102 101 109 109 114 114 112 114 117 122 122 120 118 116 110 105 102 99 100 101 99 98 96 95 94 93
279 249 242 244 245 253 280 339 66 81 98 31 40 77 71 51 63 88 97 101 105 105 107 105 99 107 114 115 115 113 115 120 127 128 125 122 119 112 107 103 100 99 103 105 102 100 99 98 97
249 242 223 235 243 253 280 324 333 273 258 78 14 75 76 76 78 89 97 96 103 104 106 113 99 101 113 119 119 116 117 123 131 134 131 127 122 115 111 107 103 102 102 106 106 106 105 102 100
252 245 232 234 237 238 246 318 312 290 278 57 21 72 111 88 75 74 89 88 97 106 110 119 105 99 100 114 121 121 119 121 132 137 134 131 126 122 118 113 110 107 104 101 106 108 108 104 104
272 247 247 251 252 248 245 331 310 300 315 25 350 343 121 74 68 69 81 91 94 103 116 124 126 119 109 106 119 123 124 120 127 138 138 133 130 131 128 120 114 111 110 107 105 108 110 112 112
301 283 255 250 249 256 354 349 359 334 337 360 351 356 124 98 66 76 85 97 107 108 118 127 131 131 133 126 124 131 133 128 130 139 139 134 134 136 132 125 118 117 116 114 110 110 117 118 125
289 258 248 261 270 293 354 335 341 334 331 325 346 343 49 93 76 83 101 106 112 115 122 128 131 127 130 139 133 142 141 140 138 139 142 139 143 140 141 127 122 125 125 125 124 121 124 133 160
243 239 249 316 337 344 329 322 330 308 288 282 340 0 74 95 110 172 170 151 136 138 135 136 140 135 130 133 135 152 157 153 152 150 156 162 150 141 130 127 125 127 131 138 144 147 146 159 199
236 246 289 322 346 342 318 310 304 289 272 276 288 293 319 206 144 266 244 187 169 152 144 138 138 136 137 137 147 145 149 166 170 168 170 166 139 125 119 125 131 132 137 139 146 165 202 196 164
244 262 286 301 327 319 305 300 290 272 277 304 293 252 237 243 219 222 262 263 183 149 163 158 150 143 145 134 144 143 142 175 171 176 176 158 142 141 143 144 154 154 166 152 170 211 216 192 194
234 250 267 286 296 291 284 273 277 271 279 281 271 246 226 234 240 237 248 260 218 200 204 185 169 165 160 150 168 156 155 170 161 167 178 150 149 157 153 159 157 170 165 164 207 209 208 224 230
266 266 261 264 271 276 276 273 266 261 268 266 257 237 231 228 233 242 245 255 241 215 213 201 182 175 166 166 174 175 168 163 151 162 183 160 161 161 162 163 165 173 163 176 198 198 188 215 333
255 258 252 234 237 256 280 266 238 251 273 269 262 249 241 232 224 231 237 249 256 246 226 209 189 158 187 185 189 177 167 157 162 169 186 180 165 164 166 164 170 176 172 181 192 181 137 137 299
235 243 249 216 225 238 261 263 246 248 259 262 263 258 253 243 229 225 218 232 237 258 240 218 212 176 201 195 195 181 164 155 169 167 174 180 173 175 165 159 174 180 174 178 180 166 153 190 236
217 252 258 260 220 248 247 267 273 257 260 258 258 253 249 252 242 228 207 211 217 237 238 219 203 192 202 191 184 187 166 162 176 174 174 183 187 186 171 169 180 170 173 183 186 158 159 186 253
247 259 265 258 245 267 261 264 268 262 255 257 256 249 244 244 241 236 218 197 225 231 228 228 211 193 191 180 174 180 170 177 191 187 184 182 187 198 185 177 181 172 173 185 177 163 171 186 217
283 274 274 282 290 283 267 270 268 263 258 252 248 244 235 239 242 227 210 185 240 245 219 218 216 201 187 188 181 188 196 189 204 204 191 188 190 208 199 186 183 182 183 187 184 171 177 195 202
267 272 278 288 300 292 277 275 266 254 243 236 241 246 233 237 245 240 225 199 224 248 221 210 215 204 202 200 188 190 189 202 208 200 197 195 193 206 208 192 186 187 187 185 185 175 186 203 168
257 254 272 288 303 270 279 276 247 238 231 234 247 253 237 232 243 243 235 228 237 245 232 224 219 210 211 201 179 171 168 189 212 209 205 203 203 213 203 200 188 191 190 197 196 188 190 194 207
261 275 284 289 299 285 278 286 256 226 222 233 250 257 260 248 249 244 239 230 242 237 231 225 211 216 212 196 193 189 195 206 221 203 201 202 209 222 205 197 195 193 196 201 208 196 195 187 198
265 301 281 275 275 281 251 258 269 225 237 252 255 250 254 247 247 243 246 228 237 229 216 220 223 234 213 200 198 197 206 216 209 194 192 205 218 221 209 201 199 202 204 207 205 203 198 198 199
273 286 270 256 257 264 238 234 273 232 237 250 265 260 259 262 284 261 263 243 234 227 212 211 224 235 226 214 210 207 207 210 197 202 203 209 208 204 206 208 203 210 207 204 207 208 203 203 205
251 280 325 314 246 253 245 239 255 236 239 241 266 278 265 264 296 300 290 273 254 243 236 226 222 234 230 222 220 221 210 211 206 206 207 207 204 205 207 211 208 211 215 207 201 205 208 206 205
233 228 198 243 264 284 268 244 250 227 270 359 343 320 290 299 290 291 283 269 266 257 254 245 240 237 232 225 227 228 221 218 216 214 214 215 211 211 204 203 209 211 209 217 207 207 213 210 208
232 223 251 262 279 276 258 248 262 255 276 304 318 326 313 294 287 292 292 277 268 271 261 253 254 242 232 230 231 227 226 226 223 216 219 222 217 213 206 204 207 211 206 207 207 209 213 211 209
249 241 185 199 255 272 269 253 253 265 297 302 311 326 322 327 320 297 297 300 282 276 282 267 259 248 235 228 235 248 244 234 221 211 220 219 215 210 205 207 208 208 211 208 202 204 211 210 216
206 213 217 231 242 254 283 276 251 222 292 333 338 347 337 332 321 313 314 314 311 299 280 264 253 260 246 231 229 236 241 232 219 214 221 220 214 211 209 208 209 210 210 207 203 209 208 211 220
236 221 197 205 242 238 266 273 9 47 357 351 335 334 329 318 314 316 318 326 324 315 297 286 282 269 257 235 227 231 223 226 223 221 227 221 217 219 215 207 211 218 214 208 207 209 211 210 215